Theta_e
304 300 296 296 309 313 316 319 319 317 318 317 318 327 327 331 341 339 339 343 343 353 352 352 351 349 348 347 346 346 344 342
300 299 304 306 310 313 316 319 321 321 315 318 326 327 329 341 340 337 338 341 347 352 352 352 351 350 348 348 347 347 345 345
298 301 306 311 313 313 315 316 320 321 314 315 324 330 341 341 339 335 336 337 345 352 352 352 352 350 349 348 348 348 348 346
296 301 307 310 312 314 316 318 319 318 318 314 322 330 339 341 338 337 335 334 340 351 352 351 351 350 349 348 348 348 348 348
298 301 304 309 314 311 315 315 315 317 313 315 320 324 335 339 339 338 337 333 339 343 349 352 350 350 349 348 348 348 348 348
297 300 301 310 312 312 312 315 320 322 313 310 318 323 325 331 332 336 337 335 338 339 343 344 345 351 350 349 348 348 348 348
297 300 304 310 308 315 318 316 317 318 318 321 325 323 320 318 319 323 335 335 339 339 338 341 342 346 350 350 350 349 348 348
305 306 304 307 308 310 313 314 314 318 320 322 323 321 319 317 317 319 330 336 339 339 338 338 341 341 344 343 343 343 341 341
311 309 309 309 309 312 311 310 313 313 316 319 319 317 317 317 316 316 323 336 340 339 340 339 338 339 343 341 340 340 340 339
313 313 311 309 311 309 311 312 317 317 318 319 318 317 317 315 316 315 316 330 339 339 339 339 338 338 340 340 339 340 340 339
312 312 312 313 310 310 311 316 318 318 316 315 317 316 316 317 317 316 314 316 337 339 339 340 338 339 339 339 339 339 339 338
308 307 308 308 309 310 312 315 315 315 314 315 315 315 314 315 315 314 316 316 325 338 339 340 339 338 339 339 339 338 338 338
302 303 306 309 305 306 312 314 312 313 314 314 313 314 314 316 316 316 316 318 319 332 339 339 339 337 339 339 339 338 337 337
300 303 304 304 297 308 312 311 310 311 313 314 315 315 316 315 314 315 316 319 319 327 334 338 338 335 339 340 340 338 337 337
297 303 303 302 299 306 310 310 308 309 311 313 314 314 313 316 317 317 318 319 317 328 331 334 333 337 339 339 339 335 336 338
295 300 303 301 300 305 308 308 308 309 311 312 313 314 315 316 317 316 316 318 320 333 333 335 335 335 335 333 331 331 333 336
297 301 300 299 300 303 306 306 305 307 309 310 312 315 317 317 315 319 324 326 327 333 334 338 336 334 331 328 327 327 330 334
294 297 298 298 298 303 305 306 307 307 308 308 307 310 313 314 319 322 324 326 331 334 337 337 336 332 330 328 326 327 329 332
291 295 297 294 292 295 301 303 305 306 307 308 308 309 311 313 317 321 325 329 332 335 335 335 334 332 327 327 326 324 324 325
292 290 286 294 285 293 298 299 302 304 304 304 307 309 310 310 319 322 326 329 333 335 335 335 333 330 327 323 321 322 324 325
Wind_Speed
4 4 6 5 6 4 5 6 10 11 6 6 5 3 10 3 13 13 14 12 13 20 20 20 19 19 18 18 18 18 18 18
2 7 7 6 5 6 7 3 5 6 5 5 1 6 8 12 15 13 13 14 18 23 22 21 21 21 20 19 19 19 19 19
4 6 7 8 9 13 7 4 3 2 6 4 4 8 15 16 16 16 14 14 17 25 25 24 24 23 23 22 22 21 20 19
5 8 9 1 9 4 4 7 2 3 11 7 2 9 13 16 16 16 18 16 15 23 24 24 24 24 24 24 23 22 20 19
4 8 10 4 5 6 6 2 9 5 7 7 5 10 15 16 14 14 14 15 14 16 20 25 24 23 23 22 22 21 21 19
4 4 11 4 13 5 7 3 1 8 3 4 7 9 9 12 11 10 12 14 14 15 16 16 16 24 24 23 22 21 21 20
6 7 10 5 4 18 10 6 2 3 6 7 3 7 2 2 5 3 7 9 11 13 15 15 14 16 22 23 22 21 20 19
10 11 6 14 7 21 12 15 7 2 2 6 10 7 8 7 8 9 15 12 12 13 13 13 11 12 14 12 11 12 12 11
15 11 9 13 13 14 16 12 6 5 4 7 4 9 10 10 10 10 17 11 17 15 15 13 12 9 7 7 7 8 11 10
16 16 14 17 17 13 16 17 11 10 9 7 9 9 10 9 9 8 9 15 16 17 15 15 9 9 9 9 8 8 10 11
13 19 19 17 21 23 22 18 17 12 9 10 10 10 9 10 10 10 8 8 16 17 16 14 13 9 10 11 10 10 9 10
13 17 16 17 22 21 23 20 18 14 11 10 9 11 8 8 10 10 11 10 10 16 17 15 16 14 12 11 11 10 9 10
19 9 12 12 24 27 20 17 19 19 13 11 10 10 11 13 10 11 11 10 12 16 15 16 19 15 11 10 10 10 9 11
20 18 9 6 34 20 11 12 13 13 16 18 21 16 14 12 10 10 9 10 11 9 14 15 14 11 10 10 9 9 8 8
21 7 5 14 43 13 12 15 13 12 16 17 20 13 11 14 12 11 11 11 8 9 12 14 9 9 10 10 8 6 6 7
13 7 17 21 34 19 21 23 22 23 24 22 21 18 16 15 12 10 8 8 4 6 7 7 7 5 4 5 5 6 7 6
2 12 17 20 22 18 16 12 12 17 18 20 20 19 16 15 8 7 7 9 10 11 9 9 8 6 5 5 4 4 5 10
6 9 10 12 23 26 22 22 19 23 21 15 9 12 12 9 7 10 9 7 8 7 11 7 5 4 4 5 2 4 5 7
11 12 22 9 17 14 18 13 12 10 13 11 12 14 11 9 11 8 10 10 8 9 9 8 8 7 5 5 4 3 2 3
17 13 15 7 20 18 18 23 16 15 11 11 17 9 10 8 7 10 8 7 9 10 8 8 10 8 10 5 4 3 3 3
Wind_Direction
140 191 196 206 220 211 332 29 17 338 359 110 160 20 149 157 141 133 147 159 164 170 171 172 172 170 166 166 166 169 169 173
155 236 263 237 242 273 263 0 47 21 316 22 302 163 170 136 134 136 155 167 174 173 175 177 177 174 172 172 175 178 179 180
255 241 254 262 290 266 225 122 189 298 16 328 316 138 136 144 152 154 170 178 178 179 179 181 181 179 177 178 182 185 186 187
247 264 272 221 271 304 204 186 234 177 204 202 176 136 168 160 172 171 169 181 185 184 184 186 185 184 183 182 186 188 191 191
266 279 301 311 309 294 260 204 184 185 178 186 214 202 173 177 175 176 175 175 183 186 193 189 189 189 190 189 189 191 193 195
255 244 274 327 339 304 354 72 305 133 171 214 236 213 173 181 174 179 179 183 178 186 193 196 193 193 193 191 195 196 199 194
228 231 248 72 25 295 328 314 189 129 142 206 233 53 264 178 132 169 189 185 183 186 195 200 197 197 197 197 194 198 203 200
217 230 282 311 302 293 313 322 304 39 3 176 185 195 208 219 223 187 205 193 187 188 197 197 198 194 197 197 197 196 201 202
252 248 270 284 285 273 300 298 269 305 282 294 290 180 197 215 215 204 207 189 193 189 193 190 200 187 191 191 193 196 197 190
245 258 259 256 272 271 265 264 250 255 243 253 270 287 273 225 227 223 217 192 193 194 190 192 190 188 191 191 193 197 198 188
236 250 252 261 262 263 271 275 270 262 258 242 237 235 250 243 244 237 236 197 191 188 189 191 191 187 192 195 194 196 194 190
248 248 255 255 263 267 272 275 280 280 276 268 247 245 254 252 240 239 237 243 176 189 191 184 193 190 191 192 193 188 191 194
257 248 262 259 263 252 256 273 274 274 269 270 256 257 242 247 230 225 228 224 184 191 186 188 196 195 188 189 180 186 187 187
248 243 249 240 261 254 261 251 254 269 279 276 274 265 257 242 239 240 221 212 209 176 182 192 195 187 185 182 178 181 180 176
250 222 218 207 262 252 245 257 266 267 268 270 274 266 250 248 236 232 215 202 209 193 182 189 177 177 178 169 172 160 162 167
254 212 224 239 261 261 264 265 268 270 267 266 266 260 252 250 237 225 203 219 188 202 158 150 138 123 113 120 126 144 160 161
228 201 223 239 263 256 246 249 257 258 262 258 261 253 253 254 243 184 191 184 173 161 164 145 154 140 126 142 129 117 139 145
290 286 244 244 252 263 262 262 252 258 262 250 249 259 262 242 177 188 172 180 166 164 155 149 131 117 117 125 119 135 154 166
264 303 288 300 278 275 272 260 259 270 246 260 251 257 264 216 200 166 174 179 162 149 142 124 116 106 82 71 65 82 97 122
246 256 261 203 281 265 266 267 264 244 250 247 257 239 237 231 184 185 174 141 133 131 126 124 122 113 132 138 146 192 161 140